Weather History for New Orleans Lakefront, LA

Change the Weather History Date:

Wednesday, February 12, 2014

  Actual Average Record
Temperature  
Mean Temperature 40 °F 56 °F  
Max Temperature 44 °F 65 °F 81 °F (2000)
Min Temperature 36 °F 47 °F 26 °F (1981)
Degree Days  
Heating Degree Days 25 10  
Month to date heating degree days 155 126  
Since 1 July heating degree days 1242 982  
Cooling Degree Days 0 1  
Month to date cooling degree days 3 12  
Year to date cooling degree days 3 28  
Moisture  
Dew Point 40 °F    
Average Humidity 93    
Maximum Humidity 100    
Minimum Humidity 85    
Precipitation  
Precipitation 0.99 in 0.20 in 1.87 in (1971)
Month to date precipitation 2.83 2.37  
Year to date precipitation 5.55 7.52  
Snow  
Snow 0.00 in - - ()
Month to date snowfall 0.0  
Since 1 July snowfall T  
Snow Depth 0.00 in    
Sea Level Pressure  
Sea Level Pressure 29.95 in    
Wind  
Wind Speed 14 mph (NNW)    
Max Wind Speed 21 mph    
Max Gust Speed 27 mph    
Visibility 6 miles    
Events Fog , Rain , Thunderstorm    
T = Trace of Precipitation, MM = Missing Value Source: NWS Daily Summary

Daily Weather History Graph

Daily Weather History Graph

Search for Another Location

Airport:

Trip Planner

Search our weather history database for the weather conditions in past years. The results will help you decide how hot, cold, wet, or windy it might be!

Date:

Astronomy

Feb. 12, 2014 Rise Set
Actual Time 6:42 AM CST 5:46 PM CST
Civil Twilight 6:17 AM CST 6:11 PM CST
Nautical Twilight 5:49 AM CST 6:39 PM CST
Astronomical Twilight 5:21 AM CST 7:07 PM CST
Moon 4:03 PM CST (2/12) 4:55 AM CST (2/12)
Length of Visible Light 11h 53m
Length of Day
11h 03m
Waxing Gibbous, 95% of the Moon is Illuminated
Feb 12
Waxing Gibbous
Feb 14
Full
Feb 22
Last Quarter
Mar 1
New
Mar 8
First Quarter

Hourly Weather History & Observations

Time (CST) Temp. Windchill Dew Point Humidity Pressure Visibility Wind Dir Wind Speed Gust Speed Precip Events Conditions
12:21 AM 42.1 °F 36.1 °F 39.0 °F 89% 29.99 in 8.0 mi ENE 10.4 mph 25.3 mph 0.02 in Rain , Thunderstorm Light Rain
12:33 AM 43.0 °F 35.1 °F 41.0 °F 93% 30.00 in 4.0 mi NE 17.3 mph - 0.09 in Rain , Thunderstorm Thunderstorms and Rain
12:43 AM 43.0 °F 36.4 °F 41.0 °F 93% 30.01 in 4.0 mi North 12.7 mph 24.2 mph 0.13 in Rain Heavy Rain
12:53 AM 43.0 °F 36.0 °F 41.0 °F 93% 29.99 in 4.0 mi North 13.8 mph - 0.17 in Rain Heavy Rain
12:56 AM 43.0 °F 35.4 °F 41.0 °F 93% 30.01 in 4.0 mi NNE 16.1 mph - 0.02 in Rain , Thunderstorm Rain
1:17 AM 44.1 °F 36.8 °F 42.1 °F 93% 29.94 in 4.0 mi East 16.1 mph - 0.13 in Rain , Thunderstorm Rain
1:33 AM 46.0 °F 39.9 °F 44.1 °F 93% 29.97 in 1.8 mi NNE 13.8 mph - 0.30 in Rain , Thunderstorm Heavy Thunderstorms and Rain
1:37 AM 45.0 °F 38.9 °F 44.1 °F 97% 29.99 in 1.8 mi NNE 12.7 mph - 0.40 in Rain , Thunderstorm Heavy Thunderstorms and Rain
1:43 AM 45.0 °F 38.2 °F 44.1 °F 97% 29.96 in 0.8 mi NNE 15.0 mph - 0.73 in Rain , Thunderstorm Heavy Thunderstorms and Rain
1:53 AM 45.0 °F 37.9 °F 44.1 °F 97% 29.97 in 2.0 mi NW 16.1 mph 21.9 mph 0.78 in Rain , Thunderstorm Thunderstorms and Rain
2:01 AM 43.0 °F 34.0 °F 41.0 °F 93% 29.97 in 5.0 mi NW 21.9 mph - 0.02 in Rain , Thunderstorm Thunderstorms and Rain
2:16 AM 42.1 °F 32.8 °F 39.9 °F 92% 29.99 in 10.0 mi NW 21.9 mph - 0.02 in Rain , Thunderstorm Light Rain
2:24 AM 42.1 °F 32.8 °F 39.9 °F 92% 29.99 in 10.0 mi NW 21.9 mph - 0.02 in Rain Light Rain
2:53 AM 42.1 °F 34.2 °F 39.0 °F 89% 29.96 in 8.0 mi NW 16.1 mph - 0.03 in Rain Light Rain
3:53 AM 42.1 °F 33.1 °F 39.0 °F 89% 29.95 in 10.0 mi NNW 20.7 mph - 0.00 in   Overcast
4:53 AM 42.1 °F 33.9 °F 39.0 °F 89% 29.93 in 10.0 mi North 17.3 mph - 0.00 in Rain Light Rain
5:53 AM 42.1 °F 35.2 °F 39.0 °F 89% 29.95 in 10.0 mi North 12.7 mph - 0.00 in   Overcast
6:53 AM 42.1 °F 35.2 °F 39.9 °F 92% 29.94 in 10.0 mi North 12.7 mph - 0.01 in   Overcast
7:53 AM 42.1 °F 34.2 °F 39.9 °F 92% 29.95 in 10.0 mi North 16.1 mph - N/A   Overcast
8:53 AM 42.1 °F 33.9 °F 39.9 °F 92% 29.96 in 2.5 mi NNW 17.3 mph - N/A   Overcast
9:15 AM 42.1 °F 33.9 °F 39.9 °F 92% 29.98 in 1.5 mi NNW 17.3 mph - N/A   Overcast
9:25 AM 42.1 °F 33.9 °F 39.9 °F 92% 29.98 in 8.0 mi NNW 17.3 mph - N/A   Overcast
9:37 AM 42.1 °F 39.2 °F 39.9 °F 92% 29.98 in 2.5 mi Variable 4.6 mph 21.9 mph N/A   Overcast
9:53 AM 41.0 °F - 39.0 °F 93% 29.96 in 2.5 mi North - - N/A   Overcast
9:56 AM 41.0 °F - 39.9 °F 96% 29.98 in 3.0 mi North - - N/A   Overcast
10:13 AM 42.1 °F - 39.9 °F 92% 29.98 in 3.0 mi North - - N/A   Overcast
10:35 AM 42.1 °F 33.1 °F 39.9 °F 92% 29.97 in 3.0 mi NNW 20.7 mph - N/A   Mist
10:53 AM 42.1 °F 33.1 °F 39.9 °F 92% 29.95 in 3.0 mi NNW 20.7 mph - N/A   Mist
11:28 AM 42.1 °F 33.3 °F 39.9 °F 92% 29.97 in - NNW 19.6 mph - N/A   Overcast
11:53 AM 43.0 °F 35.4 °F 39.9 °F 89% 29.95 in - NNW 16.1 mph - N/A   Overcast
12:27 PM 43.0 °F 34.8 °F 39.9 °F 89% 29.94 in 1.5 mi NNW 18.4 mph - N/A   Overcast
12:42 PM 43.0 °F 34.5 °F 39.9 °F 89% 29.94 in 0.5 mi NNW 19.6 mph - N/A Fog Fog
12:53 PM 43.0 °F 34.2 °F 39.9 °F 89% 29.91 in 2.0 mi NNW 20.7 mph - N/A   Overcast
1:02 PM 43.0 °F 34.0 °F 39.9 °F 89% 29.92 in 5.0 mi NNW 21.9 mph - N/A   Overcast
1:14 PM 43.0 °F 34.2 °F 41.0 °F 93% 29.91 in 1.2 mi NNW 20.7 mph - N/A   Overcast
1:21 PM 43.0 °F 34.5 °F 41.0 °F 93% 29.91 in 0.5 mi NW 19.6 mph - N/A Fog Fog
1:30 PM 43.0 °F 34.5 °F 41.0 °F 93% 29.91 in 2.0 mi NW 19.6 mph - N/A   Overcast
1:37 PM 43.0 °F 35.1 °F 39.9 °F 89% 29.90 in 7.0 mi NNW 17.3 mph - N/A   Overcast
1:53 PM 43.0 °F 34.2 °F 39.9 °F 89% 29.88 in 6.0 mi NW 20.7 mph - N/A   Overcast
2:53 PM 43.0 °F 34.2 °F 39.9 °F 89% 29.88 in 10.0 mi NW 20.7 mph - N/A   Overcast
3:53 PM 43.0 °F 35.4 °F 39.9 °F 89% 29.88 in 10.0 mi NW 16.1 mph - N/A   Overcast
4:53 PM 42.1 °F 33.6 °F 39.0 °F 89% 29.90 in 10.0 mi NW 18.4 mph - N/A   Overcast
5:43 PM 42.1 °F 32.8 °F 39.0 °F 89% 29.93 in 10.0 mi NW 21.9 mph - N/A   Overcast
5:53 PM 42.1 °F 32.6 °F 39.0 °F 89% 29.91 in 10.0 mi NW 23.0 mph - N/A   Overcast
6:17 PM 41.0 °F 31.9 °F 37.9 °F 89% 29.95 in 10.0 mi NW 19.6 mph - N/A   Overcast
6:53 PM 41.0 °F 31.4 °F 37.9 °F 89% 29.94 in 10.0 mi NW 21.9 mph - N/A   Overcast
7:26 PM 39.9 °F 29.7 °F 37.0 °F 89% 29.96 in 10.0 mi NW 23.0 mph - N/A   Overcast
7:53 PM 39.9 °F 30.2 °F 37.0 °F 89% 29.95 in 10.0 mi NW 20.7 mph - N/A   Overcast
8:53 PM 39.0 °F 29.0 °F 36.0 °F 89% 29.97 in 10.0 mi NW 20.7 mph - N/A   Overcast
9:53 PM 39.0 °F 29.0 °F 36.0 °F 89% 29.98 in 10.0 mi NW 20.7 mph - N/A   Overcast
10:53 PM 37.9 °F 27.6 °F 35.1 °F 89% 29.99 in 10.0 mi NW 20.7 mph - N/A   Overcast
11:53 PM 37.9 °F 27.9 °F 35.1 °F 89% 29.99 in 10.0 mi NW 19.6 mph - N/A   Overcast